Find Meteor

NORAD ID: 7714 Int'l Des: 1975-023 Owner: GUKOSR/GMS Country: SU operational
LEOCIRCULARPOLAR

Live Position

Loading 3D Globe...

About Meteor

Description loading...

Upcoming Passes

Passes for default location (London). Set your location on the main map for personalized predictions.

Altitude History

Loading altitude history...

Two-Line Element Set

1 07714U 75023A 26106.22776454 .00000039 00000-0 15162-4 0 9999
2 07714 81.1891 290.0189 0030378 166.8937 193.3029 14.08467850938818
Epoch: Apr 16, 2026 • Age: 10 hours

Current Status

Altitude 888.9 km
Velocity 7.40 km/s
Sub-Earth Point -0.37°S, 150.67°W
Type other

Most Searched